DW8947 Weather Reports


time (UTC)temp
C
wind
direction
speed
KPH
gust
KPH
rain 1hr
cm
rain 24hr
cm
rain mn
cm
humidity
%
barometer
mb
20260505225704 17 169 1.6 3.2 0.00 0.00 0.00 70 1013.9
20260505223704 18 183 1.6 3.2 0.00 0.00 0.00 70 1014.0
20260505223205 18 183 1.6 3.2 0.00 0.00 0.00 70 1014.0
20260505222704 17 130 0.0 3.2 0.00 0.00 0.00 69 1014.0
20260505220205 17 162 1.6 3.2 0.00 0.00 0.00 70 1014.2
20260505215704 17 329 1.6 3.2 0.00 0.00 0.00 72 1014.2
20260505214204 17 196 1.6 3.2 0.00 0.00 0.00 70 1014.3
20260505213205 17 63 1.6 3.2 0.00 0.00 0.00 70 1014.4
20260505211705 18 267 0.0 3.2 0.00 0.00 0.00 70 1014.5
20260505211205 17 252 1.6 3.2 0.00 0.00 0.00 72 1014.5
20260505210704 17 73 1.6 3.2 0.00 0.00 0.00 71 1014.5
20260505205704 17 209 1.6 1.6 0.00 0.00 0.00 73 1014.5
20260505204704 16 207 1.6 3.2 0.00 0.00 0.00 74 1014.6
20260505204205 16 244 1.6 3.2 0.00 0.00 0.00 76 1014.6
20260505203204 16 245 1.6 3.2 0.00 0.00 0.00 75 1014.7
20260505202704 16 260 0.0 3.2 0.00 0.00 0.00 76 1014.7
20260505202205 16 301 1.6 3.2 0.00 0.00 0.00 76 1014.7
20260505200204 15 268 1.6 3.2 0.00 0.00 0.00 78 1014.7
20260505195705 15 285 1.6 1.6 0.00 0.00 0.00 78 1014.7
20260505194205 15 174 1.6 3.2 0.00 0.00 0.00 77 1014.6
20260505193704 15 10 1.6 4.8 0.00 0.00 0.00 78 1014.7
20260505193204 15 214 0.0 1.6 0.00 0.00 0.00 78 1014.7
20260505192705 15 204 1.6 3.2 0.00 0.00 0.00 78 1014.6
20260505192205 15 168 0.0 3.2 0.00 0.00 0.00 78 1014.7
20260505191205 15 168 0.0 3.2 0.00 0.00 0.00 78 1014.6
20260505190704 15 199 0.0 3.2 0.00 0.00 0.00 79 1014.7
20260505190204 15 162 0.0 3.2 0.00 0.00 0.00 78 1014.6
20260505185704 15 162 1.6 3.2 0.00 0.00 0.00 79 1014.6
20260505184204 15 117 0.0 3.2 0.00 0.00 0.00 79 1014.5
20260505180704 14 163 0.0 1.6 0.00 0.00 0.00 81 1014.4
20260505175204 14 218 0.0 3.2 0.00 0.00 0.00 81 1014.5
20260505174704 14 218 0.0 3.2 0.00 0.00 0.00 82 1014.5
20260505174204 14 218 0.0 1.6 0.00 0.00 0.00 81 1014.4
20260505173704 14 218 0.0 3.2 0.00 0.00 0.00 81 1014.4
20260505172704 14 218 0.0 3.2 0.00 0.00 0.00 80 1014.5
20260505171704 13 179 0.0 3.2 0.00 0.00 0.00 82 1014.4
20260505171204 13 179 0.0 3.2 0.00 0.00 0.00 82 1014.4
20260505170704 13 139 0.0 3.2 0.00 0.00 0.00 81 1014.4
20260505165704 13 139 0.0 3.2 0.00 0.00 0.00 82 1014.3
20260505164705 13 139 0.0 3.2 0.00 0.00 0.00 83 1014.3
20260505163204 13 144 0.0 3.2 0.00 0.00 0.00 83 1014.1
20260505162705 13 144 0.0 1.6 0.00 0.00 0.00 83 1014.2
20260505162204 13 144 0.0 3.2 0.00 0.00 0.00 83 1014.2
20260505161705 13 144 0.0 3.2 0.00 0.00 0.00 84 1014.1
20260505161204 13 144 0.0 3.2 0.00 0.00 0.00 85 1014.1
20260505153204 12 163 0.0 3.2 0.00 0.00 0.00 85 1013.9
20260505152704 12 163 0.0 1.6 0.00 0.00 0.00 85 1013.9
20260505152204 12 163 0.0 1.6 0.00 0.00 0.00 85 1013.8
20260505151704 12 163 0.0 1.6 0.00 0.00 0.00 85 1013.7
20260505151204 12 244 0.0 3.2 0.00 0.00 0.00 85 1013.6
20260505123704 12 214 0.0 3.2 0.00 0.00 0.00 88 1012.1
20260505123204 12 217 0.0 3.2 0.00 0.00 0.00 88 1012.0
20260505122205 12 228 0.0 3.2 0.00 0.00 0.00 88 1011.9
20260505120704 12 223 0.0 3.2 0.00 0.00 0.00 88 1011.9
20260505115705 12 223 0.0 3.2 0.00 0.00 0.00 88 1011.8
20260505115204 12 223 0.0 3.2 0.00 0.00 0.00 88 1011.8
20260505114704 12 246 0.0 1.6 0.00 0.00 0.00 88 1011.8
20260505112204 12 246 0.0 3.2 0.00 0.00 0.00 88 1011.6
20260505111704 12 239 0.0 3.2 0.00 0.00 0.00 88 1011.6
20260505110204 12 239 0.0 3.2 0.00 0.00 0.00 88 1011.5
20260505101204 12 61 0.0 3.2 0.00 0.00 0.00 90 1011.1
20260505100204 12 61 0.0 3.2 0.00 0.00 0.00 90 1011.0
20260505095704 12 61 0.0 3.2 0.00 0.00 0.00 90 1011.1
20260505093704 12 158 0.0 3.2 0.00 0.00 0.00 90 1010.9
20260505092704 12 158 0.0 0.0 0.00 0.00 0.00 90 1010.8
20260505092204 12 158 0.0 0.0 0.00 0.00 0.00 90 1010.8
20260505091204 12 158 0.0 3.2 0.00 0.00 0.00 90 1010.8
20260505085204 12 158 0.0 3.2 0.00 0.00 0.00 89 1010.6
20260505083704 12 167 0.0 3.2 0.00 0.00 0.00 89 1010.6
20260505081204 12 167 0.0 3.2 0.00 0.00 0.00 88 1010.4
20260505080204 12 167 0.0 3.2 0.00 0.00 0.00 88 1010.4
20260505075704 12 167 0.0 0.0 0.00 0.00 0.00 88 1010.4
20260505075204 12 167 0.0 0.0 0.00 0.00 0.00 88 1010.4
20260505074704 12 167 0.0 1.6 0.00 0.00 0.00 87 1010.4
20260505073204 12 167 0.0 1.6 0.00 0.00 0.00 87 1010.2
20260505072204 12 167 0.0 3.2 0.00 0.00 0.00 86 1010.0
20260505070204 13 167 0.0 3.2 0.00 0.00 0.00 85 1009.9
20260505065204 13 167 0.0 3.2 0.00 0.00 0.00 85 1009.8
20260505064704 13 167 0.0 3.2 0.00 0.00 0.00 84 1009.9
20260505064204 13 167 0.0 3.2 0.00 0.00 0.00 84 1009.8
20260505061704 14 102 0.0 3.2 0.00 0.00 0.00 81 1009.5
20260505060705 15 155 0.0 3.2 0.00 0.00 0.00 80 1009.3
20260505055705 15 343 0.0 3.2 0.00 0.00 0.00 79 1009.2
20260505052204 16 337 0.0 3.2 0.00 0.00 0.00 74 1008.8
20260505051704 16 337 0.0 3.2 0.00 0.00 0.00 73 1008.8
20260505041704 17 337 0.0 0.0 0.00 0.00 0.00 66 1008.3
20260505041204 17 337 0.0 0.0 0.00 0.00 0.00 66 1008.3
20260505040704 17 337 0.0 0.0 0.00 0.00 0.00 66 1008.2
20260505035204 18 331 0.0 3.2 0.00 0.00 0.00 64 1008.0
20260505034704 18 331 0.0 3.2 0.00 0.00 0.00 64 1007.9
20260505034204 18 85 0.0 3.2 0.00 0.00 0.00 64 1008.0
20260505033204 19 85 0.0 3.2 0.00 0.00 0.00 62 1007.8
20260505032204 19 85 0.0 0.0 0.00 0.00 0.00 61 1007.7
20260505031704 19 85 0.0 0.0 0.00 0.00 0.00 62 1007.6
20260505031204 20 85 0.0 0.0 0.00 0.00 0.00 64 1007.6
20260505030704 20 85 0.0 0.0 0.00 0.00 0.00 62 1007.6
20260505025704 20 85 0.0 0.0 0.00 0.00 0.00 62 1007.5
20260505025204 20 85 0.0 0.0 0.00 0.00 0.00 61 1007.4
20260505023204 20 85 0.0 0.0 0.00 0.00 0.00 58 1007.4
20260505022204 21 85 0.0 0.0 0.00 0.00 0.00 59 1007.4
20260505015704 21 85 0.0 1.6 0.00 0.00 0.00 59 1007.4
20260505015204 22 85 0.0 3.2 0.00 0.00 0.00 59 1007.4
20260505014704 22 85 0.0 3.2 0.00 0.00 0.00 59 1007.4
20260505012704 22 34 0.0 1.6 0.00 0.00 0.00 57 1007.4
20260505012205 22 20 0.0 3.2 0.00 0.00 0.00 56 1007.4
20260505011704 23 20 0.0 3.2 0.00 0.00 0.00 53 1007.5
20260505011204 23 20 0.0 0.0 0.00 0.00 0.00 54 1007.5
20260505005704 23 20 0.0 3.2 0.00 0.00 0.00 53 1007.5
20260505003704 23 20 0.0 3.2 0.00 0.00 0.00 52 1007.5
20260505003204 23 20 0.0 3.2 0.00 0.00 0.00 52 1007.5
20260505002704 23 4 0.0 1.6 0.00 0.00 0.00 52 1007.5
20260505002204 23 4 0.0 3.2 0.00 0.00 0.00 52 1007.5
20260504235704 23 171 0.0 3.2 0.00 0.00 0.00 49 1007.5
20260504235204 23 158 0.0 3.2 0.00 0.00 0.00 49 1007.5
20260504234704 23 12 1.6 3.2 0.00 0.00 0.00 51 1007.5
20260504234204 23 162 0.0 3.2 0.00 0.00 0.00 50 1007.5
20260504233705 23 162 0.0 3.2 0.00 0.00 0.00 48 1007.5
20260504232703 24 212 0.0 3.2 0.00 0.00 0.00 49 1007.5
20260504231704 25 203 0.0 3.2 0.00 0.00 0.00 47 1007.5